Погода в Манчестере

США     42°59′44″N   71°27′15″W
темп.,
°C
ветер,
м/с
пор.,
м/с
влажн.,
%
обл.,
%
осадки,
мм/ч
давл.,
гПа
погр.,
м
15 мая, сб
сб1523:00+11с238097 0.0 102251
02:00+9зсз11845 0.0 102210
05:00+8зсз11805 0.0 102210
08:00+14зсз244886 0.0 1023224
11:00+22зюз242559 0.0 10232138
14:00+23зюз341918 0.0 10213304
17:00+23з442823 0.0 10203204
20:00+15з3757100 0.0 1021119
16 мая, вс
вс1623:00+13з31165100 0.0 1023316
02:00+13сз286893 0.0 1023203
05:00+9сз22796 0.0 102319
08:00+16зсз235516 0.0 1024259
11:00+21з3434100 0.0 10242077
14:00+22з2433100 0.0 10222770
17:00+21зюз1337100 0.0 10211841
20:00+12ююз269398 3.3 1024163
17 мая, пн
пн1723:00+12з1293100 1.4 102330
02:00+10сз229512 1.5 102326
05:00+8с11965 0.0 102415
08:00+13св118611 0.0 1026329
11:00+20вюв005415 0.0 10251181
14:00+19юв2268100 2.6 10241150
17:00+19юв225715 1.2 10231190
20:00+13ю2595100 2.9 1024104
18 мая, вт
вт1823:00+11ю119635 0.0 102411
02:00+9з119611 0.0 102413
05:00+9зсз1195100 0.0 102311
08:00+14зсз258354 0.0 1024222
11:00+22сз354035 0.0 10241755
14:00+19зсз2456100 0.0 1023420
17:00+23зсз3741100 0.0 10212433
20:00+16ссз116682 0.0 102211
19 мая, ср
ср1923:00+15сз226738 0.0 102443
02:00+12сз227985 0.0 102438
05:00+12сз238445 0.0 102558
08:00+18сз256111 0.0 1026269
11:00+24ссз353961 0.0 10251280
14:00+27ссз363758 0.0 10242448
17:00+25сз255043 0.0 10241011
20:00+20зсз22730 0.0 102511